Flag for United Kingdom Weather past 2 weeks in Bristol, England, United Kingdom

Now
59 °F

Scattered showers. Scattered clouds.


Feels Like: 55 °F
Forecast: 52 / 63 °F
Wind: 23 mph from West

Location: Bristol / Lulsgate

Current Time: Jul 28, 2015 at 5:16:28 PM

Latest Report: Jul 28, 2015 at 4:50 PM


Visibility: N/A

Pressure: 29.77 "Hg

Humidity: 68%

Dew point: 48 °F

Location of BristolLocation

Historic Weather in Bristol — Graph

°F

Bristol temperature yesterday

Maximum temperature yesterday: 59 °F (at 12:50 PM)
Minimum temperature yesterday: 55 °F (at 10:20 AM)
Average temperature yesterday: 57 °F

Past Weeks' High & Low Weather Summary

 TemperatureHumidityPressure
High72 °F (Jul 16, 3:20 PM)100% (Jul 13, 4:20 PM)30.12 "Hg (Jul 13, 4:20 PM)
Low50 °F (Jul 25, 1:20 AM)35% (Jul 19, 4:20 PM)29.45 "Hg (Jul 26, 3:20 PM)
Average58 °F83%29.89 "Hg
* Reported Jul 13 4:20 PM — Jul 28 4:20 PM, Bristol, Weather by CustomWeather, © 2015

Note: Actual official high and low records may vary slightly from our data, if they occured in-between our weather recording intervals... More about our weather records

Advertising

Bristol weather history for previous 24 hours

 ConditionsComfort  
Time TempWeatherWind HumidityBarometerVisibility
4:20 PM
Tue, Jul 28
61 °FScattered showers. Scattered clouds.23 mph63%29.77 "HgN/A
3:50 PM59 °FScattered showers. Scattered clouds.21 mph63%29.77 "HgN/A
3:20 PM59 °FScattered showers. Scattered clouds.22 mph63%29.77 "HgN/A
2:50 PM61 °FScattered clouds.21 mph63%29.77 "HgN/A
2:20 PM59 °FScattered clouds.21 mph68%29.77 "HgN/A
1:50 PM59 °FScattered clouds.18 mph68%29.77 "HgN/A
1:20 PM59 °FScattered clouds.20 mph68%29.77 "HgN/A
12:50 PM57 °FScattered clouds.20 mph72%29.77 "HgN/A
12:20 PM59 °FScattered clouds.20 mph68%29.77 "HgN/A
11:50 AM59 °FScattered clouds.21 mph68%29.77 "HgN/A
11:20 AM59 °FPartly sunny.18 mph68%29.74 "HgN/A
10:50 AM57 °FScattered clouds.21 mph72%29.74 "HgN/A
10:20 AM57 °FScattered clouds.21 mph72%29.74 "HgN/A
9:50 AM55 °FScattered clouds.18 mph77%29.74 "HgN/A
9:20 AM55 °FScattered clouds.20 mph82%29.74 "HgN/A
8:50 AM55 °FScattered clouds.18 mph77%29.74 "HgN/A
8:20 AM54 °FScattered clouds.17 mph88%29.74 "HgN/A
7:50 AM54 °FScattered clouds.18 mph82%29.71 "HgN/A
7:20 AM54 °FPartly sunny.18 mph82%29.71 "HgN/A
6:50 AM54 °FScattered clouds.20 mph82%29.71 "HgN/A
6:20 AM54 °FPartly cloudy.18 mph82%29.71 "HgN/A
5:50 AM54 °FPartly cloudy.20 mph82%29.71 "HgN/A
5:20 AM54 °FPartly cloudy.18 mph82%29.71 "HgN/A
4:50 AM54 °FPassing clouds.18 mph82%29.68 "HgN/A
4:20 AM54 °FPassing clouds.20 mph82%29.68 "HgN/A
2:20 AM55 °FPartly cloudy.22 mph82%29.68 "HgN/A
1:50 AM55 °FPartly cloudy.21 mph82%29.68 "HgN/A
1:20 AM55 °FPassing clouds.21 mph88%29.68 "HgN/A
12:50 AM55 °FPassing clouds.23 mph88%29.68 "HgN/A
12:20 AM55 °FPartly cloudy.21 mph88%29.68 "HgN/A
11:50 PM
Mon, Jul 27
55 °FPassing clouds.22 mph88%29.68 "HgN/A
11:20 PM55 °FScattered showers. Passing clouds.20 mph88%29.68 "HgN/A
10:50 PM55 °FScattered showers. Partly cloudy.22 mph88%29.68 "HgN/A
10:20 PM55 °FScattered showers. Partly cloudy.20 mph94%29.65 "Hg4 mi
9:50 PM55 °FSprinkles. Partly sunny.23 mph94%29.65 "Hg4 mi
9:20 PM55 °FSprinkles. Partly sunny.23 mph94%29.65 "Hg3 mi
8:50 PM55 °FDrizzle. Broken clouds.21 mph100%29.65 "Hg2 mi
8:20 PM55 °FDrizzle. Partly sunny.20 mph94%29.65 "Hg2 mi
7:50 PM55 °FDrizzle. Broken clouds.20 mph94%29.65 "Hg3 mi
7:20 PM57 °FDrizzle. Partly sunny.20 mph88%29.65 "Hg6 mi
6:50 PM57 °FDrizzle. Broken clouds.18 mph82%29.65 "HgN/A
6:20 PM57 °FScattered showers. Broken clouds.22 mph82%29.65 "HgN/A
5:50 PM57 °FDrizzle. Broken clouds.21 mph82%29.62 "HgN/A
5:20 PM59 °FScattered showers. Broken clouds.22 mph77%29.62 "HgN/A
Weather by CustomWeather, © 2015

See weather overviewHow to use our weather pages